www.pogodaiklimat.ru

Погода и климат >> Архив погоды >> Норвегия >> Финсеватнет


ПОГОДА на Финсеватнете

  • Прогноз погоды на Финсеватнете
  • Монитор погоды на Финсеватнете

АРХИВ ПОГОДЫ на Финсеватнете

Время (UTC), дата Ветер
(напр.,м/с)
 
Видим.   Явления Облачность Т
(С)
Тd
(С)
f
(%)
Тe
(С)
Тes
(С)
Комфортность P
(гПа)
Po
(гПа)
Тmin
(С)
Tmax
(С)
R
(мм)
R24
(мм)
S
(см)
10 11.07 ЮВ 5
{8}
н/о н/о +16.3 +2.4 39 +15 +15 1008.1 875.8
11 11.07 В 4
{8}
н/о н/о +15.2 +1.4 39 +14 +14 1008.3 875.6
12 11.07 В 4
{8}
н/о н/о +15.4 +1.6 39 +15 +15 1008.2 875.6
13 11.07 В 4
{7}
н/о н/о +15.5 +2.0 40 +15 +15 1008.2 875.6
14 11.07 ЮВ 4
{6}
н/о н/о +15.5 +1.3 38 +15 +15 1008.2 875.6
15 11.07 В 4
{6}
н/о н/о +15.3 +1.5 39 +15 +15 1008.0 875.4
16 11.07 ЮВ 4
{6}
н/о н/о +15.3 +2.2 41 +14 +14 1007.9 875.3
17 11.07 ЮВ 3
{6}
н/о н/о +15.3 +2.5 42 +15 +15 1007.8 875.2
18 11.07 ЮЗ 2
{7}
н/о н/о +14.9 +2.5 43 +15 +15 1007.9 875.1 +11.8 +16.5
19 11.07 З 1
{2}
н/о н/о +14.3 +3.8 49 +15 +15 1008.1 875.0
20 11.07 З 1
{3}
н/о н/о +13.4 +4.0 53 +14 +14 1008.6 875.1
21 11.07 С 1
{3}
н/о н/о +12.3 +4.5 59 +13 +13 1009.5 875.3
22 11.07 штиль 0
{2}
н/о н/о +11.1 +5.0 66 +11 +11 1010.1 875.4
23 11.07 штиль 0
{1}
н/о н/о +10.2 +5.6 73 +10 +10 1010.5 875.3
00 12.07 штиль 0
{3}
н/о н/о +9.3 +6.0 80 +9 +9 1010.8 875.2
01 12.07 штиль 0
{1}
н/о н/о +7.4 +4.9 84 +7 +7 1011.8 875.2
02 12.07 штиль 0
{1}
н/о н/о +6.4 +4.7 89 +5 +5 1012.2 875.1
03 12.07 штиль 0
{1}
н/о н/о +6.1 +4.6 90 +5 +5 1012.3 875.1
04 12.07 штиль 0
{1}
н/о н/о +6.8 +5.1 89 +6 +6 1012.0 875.1
05 12.07 СЗ 1
{1}
н/о н/о +8.6 +5.2 79 +8 +8 1011.1 875.1
06 12.07 З 1
{2}
н/о н/о +11.5 +5.4 66 +12 +12 1009.8 875.3 +6.1 +14.9
07 12.07 З 1
{2}
н/о н/о +13.9 +4.2 52 +14 +14 1008.5 875.2
08 12.07 ЮВ 3
{4}
н/о н/о +16.2 +3.3 42 +16 +16 1007.3 875.2
09 12.07 Ю 3
{6}
н/о н/о +16.6 +3.0 40 +16 +16 1007.1 875.2
10 12.07 ЮВ 3
{6}
н/о н/о +16.9 +3.6 41 +17 +17 1007.1 875.3
11 12.07 В 2
{6}
н/о н/о +16.8 +3.2 40 +17 +17 1007.4 875.4
12 12.07 З 3
{6}
н/о н/о +17.4 +2.2 36 +17 +17 1006.9 875.4
13 12.07 СЗ 3
{5}
н/о н/о +16.9 +2.5 38 +17 +17 1007.2 875.3
14 12.07 В 6
{9}
н/о н/о +14.7 +5.5 54 +13 +13 1008.9 875.9
15 12.07
{9}
н/о н/о +12.7 +7.6 71 1010.4 876.3
16 12.07 С 2
{5}
н/о н/о +12.6 +7.1 69 +12 +12 1010.5 876.3
17 12.07 СЗ 6
{8}
н/о н/о +12.4 +6.5 67 +10 +10 1010.4 876.2
18 12.07 З 3
{10}
н/о н/о +11.4 +7.9 79 +10 +10 1011.4 876.6 +11.0 +19.0
19 12.07 СЗ 5
{6}
н/о н/о +12.6 +6.0 64 +11 +11 1010.5 876.4
20 12.07 З 2
{6}
н/о н/о +11.3 +7.4 77 +10 +10 1011.4 876.6
21 12.07 З 2
{4}
н/о н/о +11.8 +7.3 74 +11 +11 1011.3 876.7
22 12.07 С 1
{2}
н/о н/о +10.4 +6.9 79 +10 +10 1012.4 877.0
23 12.07 СЗ 2
{4}
н/о н/о +9.5 +6.2 80 +8 +8 1012.8 877.1
00 13.07 штиль 0
{6}
н/о н/о +7.7 +6.0 89 +7 +7 1013.4 876.8
01 13.07 З 1
{2}
н/о н/о +7.4 +6.2 92 +6 +6 1013.6 876.8
02 13.07 СЗ 2
{3}
н/о н/о +8.1 +6.1 87 +6 +6 1013.3 876.9
03 13.07 СЗ 1
{3}
н/о н/о +8.4 +6.5 88 +8 +8 1013.2 876.8
04 13.07 СЗ 1
{3}
н/о н/о +7.7 +5.5 86 +7 +7 1013.5 876.9
05 13.07 СЗ 3
{4}
н/о н/о +10.4 +6.6 77 +8 +8 1012.0 876.7
06 13.07 З 3
{5}
н/о н/о +11.9 +6.6 70 +10 +10 1011.3 876.7 +7.1 +12.9
07 13.07 З 4
{7}
н/о н/о +13.1 +4.5 56 +12 +12 1010.8 876.8
08 13.07 З 4
{7}
н/о н/о +14.0 +3.5 49 +13 +13 1010.6 877.1
09 13.07 СЗ 4
{7}
н/о н/о +14.7 +3.8 48 +14 +14 1010.1 877.0
10 13.07 З 5
{7}
н/о н/о +15.1 +3.3 45 +14 +14 1009.9 877.0
11 13.07 СЗ 5
{8}
н/о н/о +15.8 +3.6 44 +15 +15 1009.8 877.1
12 13.07 З 6
{8}
н/о н/о +15.3 +5.3 51 +14 +14 1010.0 877.1
13 13.07 З 6
{9}
н/о н/о +15.5 +5.2 50 +14 +14 1010.1 877.2
14 13.07 З 6
{10}
н/о н/о +15.3 +4.7 49 +14 +14 1010.0 877.1
15 13.07 З 5
{9}
н/о н/о +15.6 +4.7 48 +15 +15 1009.8 877.1
16 13.07 З 6
{9}
н/о н/о +15.4 +6.4 55 +14 +14 1009.9 877.0
17 13.07 З 6
{9}
н/о н/о +14.6 +5.7 55 +13 +13 1010.4 877.2
18 13.07 З 5
{10}
н/о н/о +14.1 +5.7 57 +13 +13 1011.2 877.7 +11.8 +16.0
19 13.07 З 5
{7}
н/о н/о +12.9 +6.7 66 +11 +11 1011.9 877.7
20 13.07 СЗ 5
{8}
н/о н/о +11.8 +7.7 76 +9 +9 1012.5 877.8
21 13.07 СЗ 4
{6}
н/о н/о +10.9 +7.0 77 +9 +9 1013.5 878.2
22 13.07 СЗ 3
{6}
н/о н/о +10.5 +6.5 76 +9 +9 1013.8 878.3
23 13.07 СЗ 3
{4}
н/о н/о +9.5 +5.3 75 +7 +7 1014.3 878.4
00 14.07 З 2
{8}
н/о н/о +8.5 +5.1 79 +7 +7 1014.9 878.4
01 14.07 С 1
{4}
н/о н/о +7.6 +4.6 81 +7 +7 1015.5 878.5
02 14.07 С 1
{1}
н/о н/о +6.3 +3.1 80 +5 +5 1016.0 878.5
03 14.07 В 1
{2}
н/о н/о +6.7 +4.0 83 +6 +6 1015.8 878.4
04 14.07 штиль 0
{3}
н/о н/о +6.7 +4.4 85 +6 +6 1015.7 878.3
05 14.07 В 1
{1}
н/о н/о +9.5 +4.5 71 +9 +9 1014.1 878.1
06 14.07 З 5
{7}
н/о н/о +10.5 +5.5 71 +8 +8 1013.7 878.2 +6.3 +14.1
07 14.07 З 4
{7}
н/о н/о +11.0 +5.6 69 +9 +9 1013.6 878.4
08 14.07 З 4
{6}
н/о н/о +12.0 +5.4 64 +10 +10 1013.1 878.3
09 14.07 З 5
{7}
н/о н/о +13.1 +5.5 60 +11 +11 1012.5 878.3
10 14.07 З 5
{8}
н/о н/о +13.6 +6.0 60 +12 +12 1012.4 878.4
11 14.07 З 5
{7}
н/о н/о +14.0 +5.4 56 +12 +12 1012.0 878.3
12 14.07 З 5
{8}
н/о н/о +14.6 +4.6 51 +13 +13 1011.7 878.3
13 14.07 З 6
{8}
н/о н/о +14.8 +6.6 58 +13 +13 1011.6 878.2
14 14.07 З 6
{9}
н/о н/о +15.0 +6.3 56 +13 +13 1011.4 878.2
15 14.07 З 6
{9}
н/о н/о +14.5 +5.3 54 +13 +13 1011.4 878.0
16 14.07 З 6
{10}
н/о н/о +13.9 +5.5 57 +12 +12 1011.8 878.1
17 14.07 З 6
{10}
н/о н/о +13.0 +7.0 67 +11 +11 1012.0 877.9
18 14.07 З 6
{10}
н/о н/о +12.0 +7.5 74 +9 +9 1012.8 878.1 +10.5 +15.2
19 14.07 СЗ 7
{10}
н/о н/о +10.8 +7.5 80 +7 +7 1013.0 877.8
20 14.07 З 5
{10}
н/о н/о +10.1 +6.8 80 +7 +7 1013.5 877.9
21 14.07 З 6
{8}
н/о н/о +9.3 +6.4 82 +6 +6 1014.0 878.0
22 14.07 З 4
{8}
н/о н/о +8.7 +6.0 83 +6 +6 1014.5 878.1
23 14.07 З 5
{8}
н/о н/о +8.2 +6.0 86 +4 +4 1014.6 878.0
00 15.07 СЗ 6
{10}
н/о н/о +7.7 +5.4 85 +3 +3 1014.6 877.8
01 15.07 СЗ 4
{8}
н/о н/о +7.1 +5.4 89 +3 +3 1014.9 877.8
02 15.07 З 7
{9}
н/о н/о +7.0 +5.2 88 +2 +2 1014.5 877.4
03 15.07 СЗ 4
{8}
н/о н/о +6.4 +4.9 90 +3 +3 1014.3 877.0
04 15.07 СЗ 8
{10}
н/о н/о +6.7 +4.4 85 +1 +1 1014.0 876.8
05 15.07 СЗ 3
{10}
н/о н/о +7.2 +3.3 76 +4 +4 1013.8 876.9
06 15.07 СЗ 4
{10}
н/о н/о +7.6 +2.9 72 +4 +4 1013.5 876.8 +6.4 +12.0
07 15.07 СЗ 6
{10}
н/о н/о +8.2 +1.8 64 +4 +4 1013.4 876.9
08 15.07 СЗ 7
{11}
н/о н/о +9.1 +1.5 59 +5 +5 1013.1 877.1
09 15.07 СЗ 5
{11}
н/о н/о +9.6 +1.8 58 +7 +7 1012.9 877.1
10 15.07 З 3
{10}
н/о н/о +10.5 +1.9 55 +9 +9 1012.5 877.2
11 15.07 СЗ 6
{10}
н/о н/о +12.3 +2.5 51 +10 +10 1011.4 876.9
12 15.07 СЗ 7
{11}
н/о н/о +11.8 +1.2 48 +9 +9 1011.4 876.8
13 15.07 С 7
{11}
н/о н/о +12.9 0.0 41 +11 +11 1010.5 876.5
14 15.07 З 8
{12}
н/о н/о +12.2 +4.0 57 +9 +9 1010.7 876.5
15 15.07 З 7
{13}
н/о н/о +12.9 +4.6 57 +10 +10 1010.3 876.3
16 15.07 СЗ 8
{14}
н/о н/о +12.0 +3.5 56 +9 +9 1010.4 876.0
17 15.07 СЗ 6
{13}
н/о н/о +11.0 +3.3 59 +8 +8 1010.9 876.1
18 15.07 СЗ 9
{14}
н/о н/о +10.3 +2.7 59 +6 +6 1011.2 876.0 +7.5 +13.9
19 15.07 СЗ 9
{11}
н/о н/о +9.8 +2.2 59 +6 +6 1011.2 875.8
20 15.07 СЗ 6
{12}
н/о н/о +9.3 +2.4 62 +6 +6 1011.8 876.1
21 15.07 СЗ 7
{10}
н/о н/о +8.2 +2.5 67 +4 +4 1012.4 876.1
22 15.07 СЗ 6
{8}
н/о н/о +7.7 +2.2 68 +4 +4 1012.5 876.0
23 15.07 СЗ 4
{10}
н/о н/о +6.8 +1.9 71 +3 +3 1013.6 876.5
00 16.07 З 6
{12}
н/о н/о +7.3 +2.8 73 +3 +3 1013.2 876.4
01 16.07 СЗ 4
{8}
н/о н/о +6.8 +1.5 69 +3 +3 1013.6 876.6
02 16.07 СЗ 4
{7}
н/о н/о +6.3 +1.3 70 +3 +3 1013.9 876.6
03 16.07 З 3
{5}
н/о н/о +5.9 +1.5 73 +3 +3 1014.2 876.6
04 16.07 СЗ 4
{8}
н/о н/о +5.9 +1.3 72 +2 +2 1014.2 876.6
05 16.07 З 3
{7}
н/о н/о +6.9 +1.2 67 +4 +4 1013.3 876.3
06 16.07 СВ 4
{8}
н/о н/о +7.9 +0.9 61 +5 +5 1013.2 876.7 +5.5 +10.7
07 16.07 В 3
{6}
н/о н/о +8.6 +1.1 59 +6 +6 1012.6 876.5
08 16.07 СВ 4
{6}
н/о н/о +9.7 +1.1 55 +7 +7 1012.2 876.6
09 16.07 Ю 2
{6}
н/о н/о +11.8 +0.3 45 +11 +11 1011.2 876.6
10 16.07 З 3
{5}
н/о н/о +12.0 +1.1 47 +11 +11 1010.9 876.5
11 16.07 Ю 2
{4}
н/о н/о +14.1 -0.3 37 +14 +14 1009.9 876.5
12 16.07 З 3
{6}
н/о н/о +13.6 -0.4 38 +13 +13 1010.3 876.6
13 16.07 З 3
{5}
н/о н/о +14.6 -0.3 36 +14 +14 1009.8 876.6
14 16.07 З 4
{6}
н/о н/о +14.6 +1.5 41 +14 +14 1009.8 876.6
15 16.07 З 5
{10}
н/о н/о +14.6 +2.2 43 +13 +13 1009.8 876.6
16 16.07 З 4
{7}
н/о н/о +14.6 +2.5 44 +14 +14 1009.7 876.6
17 16.07 З 4
{7}
н/о н/о +14.7 +2.9 45 +14 +14 1009.7 876.6
18 16.07 З 4
{10}
н/о н/о +14.1 +3.6 49 +13 +13 1010.0 876.6 +7.7 +15.2
19 16.07 З 5
{8}
н/о н/о +12.4 +6.2 66 +10 +10 1010.8 876.6
20 16.07 СЗ 3
{7}
н/о н/о +11.4 +6.8 73 +10 +10 1011.5 876.7
21 16.07 СЗ 3
{5}
н/о н/о +10.6 +7.3 80 +9 +9 1012.2 876.9
22 16.07 СЗ 2
{5}
н/о н/о +10.2 +6.9 80 +9 +9 1012.3 876.9
23 16.07 В 1
{3}
н/о н/о +8.7 +6.8 88 +8 +8 1012.9 876.8
00 17.07 В 1
{8}
н/о н/о +8.0 +6.1 88 +7 +7 1013.4 876.9
01 17.07 СВ 1
{2}
н/о н/о +7.3 +5.6 89 +6 +6 1013.6 876.8
02 17.07 СВ 1
{2}
н/о н/о +7.2 +5.4 88 +6 +6 1013.5 876.6
03 17.07 В 1
{2}
н/о н/о +7.2 +5.5 89 +6 +6 1013.4 876.5
04 17.07 В 1
{1}
н/о н/о +6.7 +5.8 94 +6 +6 1013.6 876.5
05 17.07 штиль 0
{1}
н/о н/о +7.4 +6.2 92 +6 +6 1013.0 876.3
06 17.07 В 1
{2}
н/о н/о +9.3 +6.7 84 +9 +9 1011.8 876.1 +6.6 +14.2 0.1
07 17.07 СВ 1
{1}
н/о н/о +11.6 +6.5 71 +12 +12 1010.5 875.9
08 17.07 СЗ 2
{3}
н/о н/о +11.9 -0.2 43 +11 +11 1010.2 875.8
09 17.07 Ю 2
{3}
н/о н/о +14.3 +0.6 39 +14 +14 1009.0 875.8 0.1
10 17.07 З 4
{6}
н/о н/о +13.2 -0.1 40 +12 +12 1009.7 875.9
11 17.07 З 5
{7}
н/о н/о +12.2 +2.1 50 +10 +10 1010.4 876.2
12 17.07 З 3
{7}
н/о н/о +11.5 -1.3 41 +10 +10 1010.5 875.9 0.3
13 17.07 З 2
{5}
н/о н/о +12.8 -1.9 36 +12 +12 1009.8 875.9
14 17.07 З 3
{5}
н/о н/о +14.0 +1.0 41 +13 +13 1008.9 875.6 0.1
15 17.07 З 3
{5}
н/о н/о +14.0 +1.7 43 +13 +13 1008.7 875.3
16 17.07 З 2
{4}
н/о н/о +14.6 +1.9 42 +15 +15 1007.9 875.0 0.1
17 17.07 З 5
{7}
н/о н/о +13.4 +2.6 48 +12 +12 1008.4 874.9
18 17.07 З 5
{7}
н/о н/о +13.2 +2.5 48 +11 +11 1008.5 874.9 +9.3 +15.3 0.6
19 17.07 З 3
{6}
н/о н/о +12.1 +3.9 57 +11 +11 1008.8 874.7
20 17.07 З 2
{5}
н/о н/о +11.6 +5.5 66 +11 +11 1008.9 874.6
21 17.07 З 3
{4}
н/о н/о +11.0 +6.2 72 +9 +9 1009.1 874.5
22 17.07 В 1
{3}
н/о н/о +9.6 +6.0 78 +9 +9 1009.7 874.4
23 17.07 штиль 0
{2}
н/о н/о +9.2 +5.2 76 +9 +9 1009.9 874.4
00 18.07 Ю 1
{6}
н/о н/о +8.1 +4.7 79 +7 +7 1010.3 874.2
01 18.07 С 1
{1}
н/о н/о +7.6 +5.1 84 +7 +7 1010.1 873.9
02 18.07 штиль 0
{1}
н/о н/о +6.0 +4.8 92 +5 +5 1010.5 873.5 0.1
03 18.07 штиль 0
{1}
н/о н/о +6.2 +5.2 93 +5 +5 1010.2 873.3
04 18.07 ЮВ 1 н/о н/о +6.9 +5.9 93 +6 +6 1009.6 873.1
05 18.07 В 3
{5}
н/о н/о +9.9 +6.4 79 +8 +8 1007.9 872.9
06 18.07 ЮВ 3
{5}
н/о н/о +10.4 +6.2 75 +8 +8 1007.6 872.9 +6.0 +13.2
07 18.07 ЮВ 4
{5}
н/о н/о +11.7 +5.8 67 +10 +10 1007.0 872.9
08 18.07 ЮВ 5
{9}
н/о н/о +12.4 +4.4 58 +10 +10 1006.5 872.8

 

Местоположение метеостанции Финсеватнет (Норвегия): широта 60.60 долгота 7.53 высота над уровнем моря 1210 м.

В архиве по умолчанию представлена погода на Финсеватнете за последнюю неделю. Архивные данные за месяц целиком и за предыдущие месяцы, начиная с января 2011 года, Вы можете получить, выбрав интересующий диапазон дат из раскрывающегося списка и нажав кнопку "Ввод!".


*Определитесь, кто Вы:
робот инопланетянин человек

Внимание! Время в таблицах - всемирное. Для получения местного времени необходимо прибавить поправку, которая равна 1 ч.

Смотрите также архив погоды в соседних городах и на ближайших метеорологических станциях:

Погода в Мидтстове (Норвегия) (15 км)
Погода в Клеваватнете (Норвегия) (22 км)
Погода в Фете и Эйдфьорде (Норвегия) (25 км)
Погода в Мьолфелле (Норвегия) (34 км)
Погода в Гейло (Норвегия) (37 км)
Погода в Сандхау (Норвегия) (47 км)
Погода в Лардале (Норвегия) (56 км)
Погода в Гейло аэропорту (Норвегия) (57 км)
Погода в Улленсванге (Норвегия) (57 км)
Погода в Воссевангене (Норвегия) (60 км)

Пояснения к столбцам:

Ветер - указаны скорость ветра в м/с - средняя за 10 мин, порывы в срок и между сроками (в фигурных скобках) и направление, откуда дует ветер: С - северный, СВ - северо-восточный, В - восточный, ЮВ - юго-восточный, Ю - южный, ЮЗ - юго-западный, З - западный, СЗ - северо-западный.
Видимость - горизонтальная дальность видимости в метрах или километрах. При видимости от 1 до 10 км при отсутствии осадков обычно наблюдается дымка, при ухудшении видимости до 1 км и менее - туман. В сухую погоду видимость может ухудшаться дымом, пылью или мглою.
Явления - указаны атмосферные явления, наблюдавшиеся в срок или в последний час перед сроком; фигурными скобками обозначены явления, наблюдавшиеся между сроками (за 1-3 часа до срока); квадратными скобками обозначены град или гололедные отложения с указанием их диаметра в мм.
Облачность - указаны через наклонную черту общая и нижняя облачность в баллах и высота нижней границы облаков в метрах; квадратными скобками обозначены формы облаков: Ci - перистые, Cs - перисто-слоистые, Cc - перисто-кучевые, Ac - высококучевые, As - высокослоистые, Sc - слоисто-кучевые, Ns - слоисто-дождевые, Cu - кучевые, Cb - кучево-дождевые. Подробнее классификацию облаков см. в Атласе облаков (PDF).
T - Температура воздуха - температура, измеренная на высоте 2 м над землей.
Td - Температура точки росы - температура, при понижении до которой содержащийся в воздухе водяной пар достигнет насыщения.
f - Относительная влажность воздуха - влажноcть воздуха, измеренная на высоте 2 м над землей.
Te - Эффективная температура - температура, которую ощущает одетый по сезону человек в тени. Характеристика душности погоды. При расчете учитывается влияние влажности воздуха и скорости ветра на теплоощущения человека.
Tes - Эффективная температура на солнце - температура, которую ощущает человек, с поправкой на солнечный нагрев. Характеристика знойности погоды. Зависит от высоты солнца над горизонтом, облачности и скорости ветра. Ночью, в пасмурную погоду, а также при ветре 12 м/с и более поправка равна нулю.
P - Атмосферное давление - приведенное к уровню моря атмосферное давление.
Po - Атмосферное давление - измеренное на уровне метеостанции атмосферное давление.
Tmin - Минимальная температура - минимум температуры воздуха на высоте 2 м над землей.
Tmax - Максимальная температура - максимум температуры воздуха на высоте 2 м над землей.
R - Количество осадков - Количество выпавших осадков за период времени, мм. При наведении курсора мыши на число - период времени, за который выпало указанное количество осадков.
R24 - Количество осадков - Количество выпавших осадков за 24 часа, мм.
S - Снежный покров - Высота снежного покрова, см. При наведении курсора мыши на число - состояние снежного покрова и степень покрытия местности в баллах.